Terminal Aerodrome Forecast
Issued by NWS Duluth, MN

Home | Current Version | Previous Version | Text Only | Print | Product List | Glossary On
Versions: 1 2 3 4 5 6 7 8 9 10 11 12 13 14 15 16 17 18 19 20 21 22 23
000
FTUS43 KDLH 192328
TAFINL
TAF
KINL 192328Z 2000/2024 14009KT P6SM BKN035
     FM200200 14011KT P6SM BKN035 WS020/15045KT
     FM200400 14011KT P6SM VCSH BKN030 WS020/15045KT
     FM200600 14010KT P6SM SHRA VCTS OVC040CB WS020/15045KT
     FM200900 14010KT 3SM SHRA VCTS OVC008CB WS020/15050KT
     FM201100 16008KT P6SM OVC008
     FM201400 20008KT P6SM BKN010
     FM201600 22008KT P6SM BKN060=

USA.gov is the U.S. government's official web portal to all federal, state and local government web resources and services.